Other Public Products
Issued by NWS Grand Forks, ND

Home | Current Version | Previous Version | Text Only | Print | Product List | Glossary Off
Versions: 1 2 3 4 5 6 7 8 9 10 11 12 13 14 15 16 17 18 19 20 21 22 23 24 25 26 27 28 29 30 31 32 33 34 35 36 37 38 39 40 41 42 43 44 45 46 47 48 49 50

000
FPUS83 KFGF 241331
OPUFGF
PRAIRIE TO PINES WEATHER ROUNDUP
NATIONAL WEATHER SERVICE EASTERN NORTH DAKOTA/GRAND FORKS ND
800 AM CDT MON JUL 24 2017

 **SATELLITE DATA USED TO AUGMENT SKY COVER AT AUTOMATED STATIONS**
 *****  WEATHER ACROSS EASTERN NORTH DAKOTA  *****

CITY           SKY/WX    TMP DP  RH WIND       PRES   REMARKS
GRAND FORKS    FAIR      65  62  90 S9        29.97S
GRAND FORKS AF FAIR      65  61  88 S9        29.97S
GRAND CITY NWS NOT AVBL
BUXTON           N/A     64  64  97 S3          N/A
DEVILS LAKE    FAIR      67  60  78 S10       29.94F
FARGO          SUNNY     66  61  82 S14         N/A
WAHPETON ARPT  FAIR      63  59  88 SE9       30.03R
$$

 *****  WEATHER ACROSS CENTRAL AND WESTERN NORTH DAKOTA  *****

CITY           SKY/WX    TMP DP  RH WIND       PRES   REMARKS
JAMESTOWN      FAIR      63  60  90 S9        29.95F
BISMARCK       FAIR      66  61  84 E7        29.90F
MINOT          FAIR      73  57  57 S15       29.82S
MINOT AFB      FAIR      71  58  64 S13       29.80S
GARRISON         N/A     69  60  73 S16       29.85F
WILLISTON      FAIR      74  55  51 S9        29.76S
DICKINSON      FAIR      68  56  65 SE13      29.83F
HETTINGER      FAIR      71  55  56 SE7       29.89R
$$

 *****  OTHER OBSERVATIONS NORTHEAST NORTH DAKOTA  *****

CITY           SKY/WX    TMP DP  RH WIND       PRES   REMARKS
WALHALLA       NOT AVBL
LANGDON        FAIR      64  64 100 S14       29.94F
CAVALIER       FAIR      64  63  94 S7        29.94F
GRAFTON        FAIR      66  63  88 S12       29.97F
CANDO          NOT AVBL
FORT TOTTEN      N/A     64  60  88 S8        29.95S
ROLLA            N/A     64  64 100 S10       29.90F
RUGBY          NOT AVBL
 ***** THE ABOVE OBSERVATIONS ARE NON NWS ARE NOT QUALITY
        CONTROLLED AND MAY MIS-REPORT RAIN FOR SNOW...
$$

 *****  OTHER OBSERVATIONS SOUTHEAST NORTH DAKOTA *****

CITY           SKY/WX    TMP DP  RH WIND       PRES   REMARKS
COOPERSTOWN    FAIR      64  63  94 S9        29.97F
VALLEY CITY    FAIR      63  63 100 S8        29.99S
OAKES          NOT AVBL
GWINNER        SUNNY     63  61  94 CALM      29.99F
SHEYENNE NWR     N/A     64  63  96 S5        29.95S
BUFFALO          N/A     63  60  87 E9          N/A
WYNDMERE       NOT AVBL
 ***** THE ABOVE OBSERVATIONS ARE NON NWS ARE NOT QUALITY
       CONTROLLED AND MAY MIS-REPORT RAIN FOR SNOW...
$$

  *****  WEATHER ACROSS NORTHERN MINNESOTA  *****

CITY           SKY/WX    TMP DP  RH WIND       PRES   REMARKS
FLAG ISLAND    FAIR      70  61  73 S6        30.01R HAZE
WARROAD        FAIR      64  61  88 S3        30.03R
ROSEAU         FAIR      64  59  82 S10       30.02R
HALLOCK        FAIR      64  63  94 S9        29.97S
THF RVR FALLS  FAIR      64  61  90 S10       30.03R
HALSTAD          N/A     65  61  85 S13         N/A
FOSSTON        FAIR      64  57  77 S9        30.04R
BAUDETTE       FAIR      63  61  93 S7        30.03R
WASKISH        FAIR      64  61  88 S5        30.06R
CROOKSTON      FAIR      64  63  94 S9        30.01S
$$
  *****  WEATHER ACROSS CENTRAL AND WEST MINNESOTA  *****

CITY           SKY/WX    TMP DP  RH WIND       PRES   REMARKS
BEMIDJI        FAIR      63  55  76 S9        30.06R
PARK RAPIDS    FAIR      61  58  90 S8        30.06R
WADENA         FAIR      63  61  94 S5        30.06R
DETROIT LAKES  FAIR      64  59  82 S13       30.05R
MOORHEAD       FAIR      64  61  88 S13       30.01S
FERGUS FALLS   FAIR      64  63  94 S9        30.04S
ELBOW LAKE     FAIR      63  61  91 SE10      30.05S
MORRIS MN      FAIR      64  59  82 SE10      30.04S
STAPLES        FAIR      59  57  94 S7        30.07S
WHEATON        FAIR      63  59  88 SE10      30.04S
$$
  *****  WEATHER ELSEWHERE ACROSS MINNESOTA  *****

CITY           SKY/WX    TMP DP  RH WIND       PRES   REMARKS
DULUTH         FOG       56  56 100 S6        30.10R VSB 1/4
INTRNTL FALLS  FAIR      62  57  83 SW6       30.06R
ELY            FAIR      61  52  72 SW3       30.09S
CLOQUET        FOG       55  54  94 CALM      30.10S VSB 1/2
BRAINERD       FAIR      61  58  90 S7        30.09R
HIBBING        FAIR      52  52 100 CALM      30.09R
ALEXANDRIA     FAIR      63  59  87 S8        30.08S
SAINT CLOUD    CLOUDY    58  58 100 E3        30.08S FOG
MINNEAPOLIS    FAIR      64  57  78 E6        30.07R
$$

  *****  WEATHER ACROSS SOUTH DAKOTA  *****

CITY           SKY/WX    TMP DP  RH WIND       PRES   REMARKS
SIOUX FALLS    PTSUNNY   66  62  87 SE8       30.04S
BROOKINGS      FAIR      62  59  90 S8        30.05R
WATERTOWN      FAIR      61  59  93 SE8       30.03R
HURON          FAIR      64  60  87 SE12      30.00R
SISSETON         N/A     62  60  93 SE7       30.01R
ABERDEEN       FAIR      63  60  90 S10       29.99S
MITCHELL       FAIR      64  60  87 SE8       30.01S
PIERRE         FAIR      68  58  70 SE12      29.92S
MOBRIDGE       FAIR      69  61  75 S14       29.91F
RAPID CITY     FAIR      68  54  60 W5        29.90S
$$

  *****  SOME WEATHER IN NEARBY STATES *****

CITY           SKY/WX    TMP DP  RH WIND       PRES   REMARKS
GLASGOW MT     FAIR      71  41  33 NW13      29.75R
GREAT FALLS MT FAIR      52  41  66 NW10      30.07R
CHEYENNE WY    FAIR      61  51  70 SW3       30.14R
SCOTTSBLUFF NE FAIR      78  57  48 S8        29.98R
OMAHA NE       FAIR      67  60  78 N3        30.04R
DES MOINES IA  FAIR      68  60  75 NE7       30.03R
DAVENPORT IA   CLOUDY    68  65  90 E8        30.03R
CHICAGO IL     PTSUNNY   68  60  75 N12       29.99S
EAU CLAIRE WI  PTSUNNY   61  56  83 VRB7      30.09R
LA CROSSE WI   PTSUNNY   64  56  75 NE9       30.07R
$$

  *****  SOME NATIONAL WEATHER *****

CITY           SKY/WX    TMP DP  RH WIND       PRES   REMARKS
LA GUARDIA NY  LGT RAIN  70  68  93 NE10      29.77R
RALEIGH NC     PTSUNNY   76  73  91 SW7       29.92R
ATLANTA GA     FAIR      78  73  84 SW7       29.98S
NEW ORLEANS LA FAIR      82  77  84 SW9       29.99R HX  90
OKLAHOMA CITY  FAIR      74  70  87 NW6       29.98R
ALBUQUERQUE NM FAIR      69  58  67 CALM      30.21R
SALT LAKE CITY MOCLDY    77  47  34 SE9       30.01R
LOS ANGELES CA MOCLDY    69  64  84 S5        29.89R
BOISE ID       FAIR      70  41  34 SE3       29.87S
SEATTLE WA     FAIR      56  51  84 N7        30.05R
$$

*** WEATHER ACROSS MANITOBA...SASKATCHEWAN AND ONTARIO ***
                ***ONTARIO***

CITY           SKY/WX    TMP DP  RH WIND       PRES   REMARKS
GERALDTON      MOSUNNY   64  54  68 S2        30.03S
THUNDER BAY    SUNNY     61  54  77 W3        30.07S
SIOUX LOOKOUT  MOSUNNY   66  59  77 SW7       30.03R
TORONTO        PTSUNNY   70  57  64 NW3       29.75S
BIG TROUT LK   SUNNY     68  54  60 W6        29.89R
PICKLE LAKE    MOSUNNY   68  54  60 W8        29.98R
DRYDEN         MOSUNNY   66  59  77 S7        30.03R
KENORA         MOSUNNY   68  63  83 SW12      30.02R
$$
                *** MANITOBA***

CITY           SKY/WX    TMP DP  RH WIND       PRES   REMARKS
BRANDON        MOSUNNY   63  61  94 SE7       29.85F
DAUPHIN        MOSUNNY   72  61  68 S7        29.77F
ISLAND LAKE    PTSUNNY   68  55  64 S2        29.86
PILOT MOUND      N/A     64  61  88 S13         N/A
THE PAS        SHOWER    66  64  94 S5        29.75F
THOMPSON       PTSUNNY   61  61 100 E5        29.77F
WINNIPEG       MOSUNNY   66  61  82 S12       29.93S
LYNN LAKE      FOG       57  57 100 E6        29.74F VSB 1/8
CHURCHILL      PTSUNNY   54  48  82 NE8       29.86R
GILLAM         MOSUNNY   63  61  94 CALM      29.80R
$$
                ***SASKATCHEWAN***

CITY           SKY/WX    TMP DP  RH WIND       PRES   REMARKS
ESTEVAN        PTSUNNY   72  55  56 S23       29.72F
KINDERSLEY     CLOUDY    54  48  82 NW22G31   29.80R
LLOYDMINSTER   MOSUNNY   52  50  93 W17G29    29.73R
PRINCE ALBERT  MOSUNNY   64  63  94 NE8       29.56R
REGINA         MOSUNNY   66  55  68 SE13      29.69R
YORKTON        MOSUNNY   64  59  82 S14G21    29.65F


USA.gov is the U.S. government's official web portal to all federal, state and local government web resources and services.